www.pogodaiklimat.ru
ПОГОДА в Лагосе
Время
(UTC), дата
09 15.10
12 15.10
15 15.10
18 15.10
21 15.10
00 16.10
03 16.10
06 16.10
09 16.10
12 16.10
15 16.10
18 16.10
21 16.10
00 17.10
03 17.10
06 17.10
09 17.10
12 17.10
15 17.10
18 17.10
21 17.10
00 18.10
03 18.10
06 18.10
09 18.10
12 18.10
15 18.10
18 18.10
21 18.10
00 19.10
03 19.10
06 19.10
09 19.10
12 19.10
15 19.10
18 19.10
21 19.10
00 20.10
03 20.10
06 20.10
09 20.10
12 20.10
15 20.10
18 20.10
21 20.10
03 21.10
06 21.10
09 21.10
12 21.10
15 21.10
18 21.10
00 22.10
03 22.10
06 22.10
Ветер
(напр.,м/с)
Видим. Явления Облачность Т
(С)
Тd
(С)
f
(%)
Тe
(С)
Тes
(С)
Комфортность P
(гПа)
Po
(гПа)
Тmin
(С)
Tmax
(С)
R
(мм)
R24
(мм)
S
(см)
штиль 0 8000 м мгла 9/3 270 м
[Cb cap As op]
+25.4 +23.1 87 +34 +37 очень
душно
1014.5 1009.6
ЮВ 9 10 км 9/3 400 м
[Sc As op]
+29.0 +24.0 74 +40 +41 очень
душно
1013.5 1008.5
Ю 9 10 км 9/5 360 м
[Sc Ac As]
+28.0 +24.5 81 +39 +40 очень
душно
1011.7 1006.8
штиль 0 10 км 9/3 330 м
[Sc As op Cs]
+26.5 +24.1 87 +37 +37 очень
душно
1011.4 1006.4
ЮЗ 3 10 км 8/4 300 м
[Sc Ac trans Cs]
+25.7 +22.8 84 +34 +34 очень
душно
1014.6 1009.7
штиль 0 10 км 9/1 270 м
[Sc Ac trans Cs]
+25.3 +23.6 90 +34 +34 очень
душно
1014.0 1009.0
штиль 0 10 км 9/1 270 м
[Sc Ac trans Cs]
+24.9 +21 +21 комфорт 1013.1 1008.2
Ю 3 8000 м дымка 9/5 240 м
[Sc Ac trans Cs]
+24.0 +23.3 96 +32 +32 очень
душно
1013.7 1008.8
штиль 0 10 км 9/6 360 м
[Cb cap Ac As Cs]
+27.8 +24.5 82 +39 +43 очень
душно
1015.0 1010.1
Ю 7 10 км 9/6 400 м
[Cb cap Ac As Cs]
+29.0 +21.7 65 +37 +39 очень
душно
1013.9 1009.0
ЮЗ 9 10 км 9/1 420 м
[Cu Sc As trans Cs]
+30.8 +22.4 61 +40 +40 очень
душно
1011.5 1006.6
ЮЗ 3 10 км 9/4 330 м
[Cb cap As trans Cs]
+27.4 +23.7 80 +37 +37 очень
душно
1013.1 1008.1 +31.0
С 3 6000 м гроза, ливневой дождь 9/4 240 м
[Cb cap Ac As]
+22.3 +22.2 99 +30 +30 очень
душно
1014.9 1009.9
С 3 7000 м дымка 9/3 240 м
[Sc Cs]
+23.0 +22.3 96 +31 +31 очень
душно
1013.4 1008.5 12
СВ 3 7000 м дымка 9/3 210 м
[Sc Cs]
+22.2 +21.6 96 +29 +29 очень
душно
1012.8 1007.8
штиль 0 7000 м дымка 9/3 210 м
[Sc Ac trans Cs]
+23.0 +22.3 96 +31 +31 очень
душно
1013.0 1008.1 +22.0 12
С 3 10 км 9/6 330 м
[Cu Sc Ac trans Cs]
+27.5 +24.7 85 +39 +41 очень
душно
1014.4 1009.4
З 3 10 км 9/8 420 м
[Cb cap Cs]
+31.0 +25.1 71 +45 +48 опасность
перегрева
1012.8 1007.8
Ю 7 10 км 9/6 400 м
[Cb cap Cs]
+30.2 +24.3 71 +42 +43 опасность
перегрева
1010.8 1006.0
ЮЗ 4 10 км 9/5 330 м
[Cb cap As op Cs]
+27.2 +24.2 84 +38 +38 очень
душно
1011.4 1006.5 +31.0
штиль 0 10 км гроза без осадков 9/3 300 м
[Cb cap As trans Cs]
+26.3 +24.5 90 +37 +37 очень
душно
1013.8 1008.8
штиль 0 10 км гроза без осадков 9/3 300 м
[Cb cap Cs]
+26.0 +24.6 92 +37 +37 очень
душно
1013.2 1008.2
Ю 3 8000 м гроза без осадков 9/6 270 м
[Cb cap Cs]
+25.5 +24.1 92 +35 +35 очень
душно
1011.9 1006.9
штиль 0 8000 м гроза, ливневой дождь 9/8 270 м
[Cb cap Cs]
+25.1 +24.1 94 +35 +35 очень
душно
1012.7 1007.8 +24.5 0.0
штиль 0 50 км гроза, ливневой дождь ?/? +25.0 +24.3 96 +35 +35 очень
душно
1014.4 1009.5
ЮВ 5 2500 м гроза без осадков туман 9/6 330 м
[Cb cap As op]
+26.8 +24.5 87 +38 +39 очень
душно
1012.5 1007.6 6
З 4 3000 м мгла 9/6 360 м
[Cb cap As op]
+28.4 +24.7 80 +40 +41 очень
душно
1009.8 1004.8
ЮЗ 3 10 км 9/3 300 м
[Cb cap Ac trans Cs]
+26.0 +24.3 90 +36 +36 очень
душно
1010.4 1005.5 6
штиль 0 10 км 9/5 270 м
[Sc Ac trans Cs]
+24.9 +23.7 93 +34 +34 очень
душно
1012.9 1007.9
Ю 5 8000 м гроза без осадков 9/3 240 м
[Cb cap Ac trans Cs]
+24.3 +23.6 96 +33 +33 очень
душно
1012.6 1007.6 6
С 3 6000 м гроза без осадков туман 9/3 240 м
[Cb cap Ac trans Cs]
+23.8 +22.9 95 +20 +20 тепло 1010.2 1005.3
СВ 4 500 м туман ?/? +24.0 +23.6 98 +33 +33 очень
душно
1011.9 1007.0 +22.9 6
СВ 4 8000 м 9/5 330 м
[Sc Ac trans Cs]
+26.5 +25.1 92 +38 +40 очень
душно
1013.3 1008.4
Ю 3 8000 м мгла 9/6 420 м
[Cb cap Ac trans Cs]
+31.0 +24.7 69 +44 +48 опасность
перегрева
1011.5 1006.5
Ю 12 10 км гроза без осадков 10/8 330 м
[Cb cap As op]
+26.5 +23.6 84 +36 +36 очень
душно
1010.5 1005.6
С 3 10 км в посл. час гроза 9/5 270 м
[Cb cap As trans Cs]
+25.0 +23.0 89 +33 +33 очень
душно
1011.9 1007.0 +31.0
ЮЗ 7 10 км слаб. морось 9/4 270 м
[Sc As op]
+24.9 +23.5 92 +34 +34 очень
душно
1014.2 1009.3
штиль 0 10 км слаб. дождь 9/4 270 м
[Sc As op]
+24.7 +23.7 94 +34 +34 очень
душно
1013.1 1008.1 9
штиль 0 10 км 9/5 270 м
[Sc Ac As]
+24.5 +23.6 95 +33 +33 очень
душно
1011.9 1007.0
Ю 3 5000 м слаб. дождь 9/8 270 м
[Cb cap As op]
+24.5 +23.9 96 +33 +33 очень
душно
1012.5 1007.6 5
штиль 0 7000 м гроза, ливневой дождь 9/8 240 м
[Cb cap As op]
+24.0 +23.7 98 +33 +34 очень
душно
1015.8 1010.9
штиль 0 5000 м гроза, ливневой дождь 9/8 240 м
[Cb cap As op Ci fib]
+23.8 +23.4 98 +32 +36 очень
душно
1014.5 1009.6 67
ЮЗ 4 7000 м гроза, ливневой дождь 9/8 270 м
[Cb cap As op]
+23.8 +23.5 98 +32 +33 очень
душно
1013.1 1008.2
ЮЗ 4 10 км 9/5 240 м
[Cb cap Ac trans Cs]
+24.2 +23.5 96 +33 +33 очень
душно
1011.4 1028.8 +25.0 77
штиль 0 10 км 8/1 240 м
[Sc Ac trans Cs]
+23.9 +23.2 96 +32 +32 очень
душно
1014.3 1009.4
СВ 4 6000 м дымка 9/3 210 м
[Sc As trans Cs]
+23.3 +22.9 98 +33 +33 очень
душно
1013.0 1008.0
СВ 3 7000 м дымка 9/1 210 м
[Cb cap Ac trans Cs]
+22.6 +22.2 98 +30 +30 очень
душно
1014.1 1009.2 +21.5 77
Ю 5 10 км 9/4 330 м
[Cb cap Ac trans Cs]
+27.5 +24.7 85 +39 +41 очень
душно
1015.2 1010.3
Ю 9 10 км 9/6 400 м
[Cb cap Ac trans Cs]
+29.5 +24.7 75 +42 +42 опасность
перегрева
1013.1 1008.2
Ю 8 10 км 9/6 400 м
[Cb cap Cs]
+30.2 +24.6 72 +43 +43 опасность
перегрева
1010.7 1005.8
ЮЗ 4 10 км 9/3 330 м
[Cb cap Cs]
+27.0 +24.4 86 +38 +38 очень
душно
1011.8 1006.9 +30.5
штиль 0 10 км 9/1 270 м
[Sc Cs]
+25.2 +24.3 95 +35 +35 очень
душно
1012.1 1007.2
СЗ 3 10 км 9/1 270 м
[Sc Cs]
+25.0 +24.3 96 +35 +35 очень
душно
1011.0 1006.1
штиль 0 8000 м дымка 9/5 270 м
[Sc Ac trans Cs]
+25.0 +24.3 96 +35 +35 очень
душно
1012.2 1007.3 +24.2
Местоположение метеостанции Лагос (Нигерия): широта 6.58 долгота 3.33 высота над уровнем моря 38 м.
В архиве по умолчанию представлена погода в Лагосе за последнюю неделю. Архивные данные за месяц целиком и за предыдущие месяцы, начиная с января 2011 года, Вы можете получить, выбрав интересующий диапазон дат из раскрывающегося списка и нажав кнопку "Найти!".
*Определитесь, кто Вы:
Внимание! Время в таблицах - всемирное. Для получения местного времени необходимо прибавить поправку, которая равна 3 ч.
Смотрите также архив погоды в соседних городах и на ближайших метеорологических станциях:
Партнеры нашего сайта:      
Пояснения к столбцам:
  • Ветер - указаны скорость ветра в м/с - средняя за 10 мин, порывы в срок и между сроками (в фигурных скобках) и направление, откуда дует ветер: С - северный,
  • СВ - северо-восточный, В - восточный, ЮВ - юго-восточный, Ю - южный, ЮЗ - юго-западный, З - западный, СЗ - северо-западный.
  • Видимость - горизонтальная дальность видимости в метрах или километрах. При видимости от 1 до 10 км при отсутствии осадков обычно наблюдается дымка, при ухудшении видимости до 1 км и менее - туман. В сухую погоду видимость может ухудшаться дымом, пылью или мглою.
  • Явления - указаны атмосферные явления, наблюдавшиеся в срок или в последний час перед сроком; фигурными скобками обозначены явления, наблюдавшиеся между сроками (за 1-3 часа до срока); квадратными скобками обозначены град или гололедные отложения с указанием их диаметра в мм.
  • Облачность - указаны через наклонную черту общая и нижняя облачность в баллах и высота нижней границы облаков в метрах; квадратными скобками обозначены формы облаков: Ci - перистые, Cs - перисто-слоистые, Cc - перисто-кучевые, Ac - высококучевые, As - высокослоистые, Sc - слоисто-кучевые, Ns - слоисто-дождевые, Cu - кучевые, Cb - кучево-дождевые. Подробнее классификацию облаков см. в Атласе облаков (PDF).
  • T - Температура воздуха - температура, измеренная на высоте 2 м над землей.
  • Td - Температура точки росы - температура, при понижении до которой содержащийся в воздухе водяной пар достигнет насыщения.
  • f - Относительная влажность воздуха - влажноcть воздуха, измеренная на высоте 2 м над землей.
  • Te - Эффективная температура - температура, которую ощущает одетый по сезону человек в тени. Характеристика душности погоды. При расчете учитывается влияние влажности воздуха и скорости ветра на теплоощущения человека.
  • Tes - Эффективная температура на солнце - температура, которую ощущает человек, с поправкой на солнечный нагрев. Характеристика знойности погоды. Зависит от высоты солнца над горизонтом, облачности и скорости ветра. Ночью, в пасмурную погоду, а также при ветре 12 м/с и более поправка равна нулю.
  • P - Атмосферное давление - приведенное к уровню моря атмосферное давление.
  • Po - Атмосферное давление - измеренное на уровне метеостанции атмосферное давление.
  • Tmin - Минимальная температура - минимум температуры воздуха на высоте 2 м над землей.
  • Tmax - Максимальная температура - максимум температуры воздуха на высоте 2 м над землей.
  • R - Количество осадков - Количество выпавших осадков за период времени, мм. При наведении курсора мыши на число - период времени, за который выпало указанное количество осадков.
  • R24 - Количество осадков - Количество выпавших осадков за 24 часа, мм.
  • S - Снежный покров - Высота снежного покрова, см. При наведении курсора мыши на число - состояние снежного покрова и степень покрытия местности в баллах.